Weather History for Clemson, SC

Change the Weather History Date:

Saturday, May 3, 2014

  Actual Average Record
Temperature  
Mean Temperature 66 °F -  
Max Temperature 80 °F 77 °F 93 °F (1938)
Min Temperature 53 °F 51 °F 37 °F (1939)
Cooling Degree Days 2    
Growing Degree Days 16 (Base 50)    
Moisture  
Dew Point 38 °F    
Average Humidity 36    
Maximum Humidity 57    
Minimum Humidity 22    
Precipitation  
Precipitation 0.00 in - - ()
Sea Level Pressure  
Sea Level Pressure 29.94 in    
Wind  
Wind Speed 8 mph (WNW)    
Max Wind Speed 15 mph    
Max Gust Speed -    
Visibility 10 miles    
Events      
Averages and records for this station are not official NWS values.
T = Trace of Precipitation, MM = Missing Value Source: NWS Daily Summary

Daily Weather History Graph

Daily Weather History Graph

Search for Another Location

Airport:

Trip Planner

Search our weather history database for the weather conditions in past years. The results will help you decide how hot, cold, wet, or windy it might be!

Date:

Astronomy

May. 03, 2014 Rise Set
Actual Time 6:39 AM EDT 8:18 PM EDT
Civil Twilight 6:12 AM EDT 8:45 PM EDT
Nautical Twilight 5:39 AM EDT 9:17 PM EDT
Astronomical Twilight 5:05 AM EDT 9:52 PM EDT
Moon 10:09 AM EDT (5/3) No Moon Set
Length of Visible Light 14h 33m
Length of Day
13h 38m
Waxing Crescent, 19% of the Moon is Illuminated
May 3
Waxing Crescent
May 6
First Quarter
May 14
Full
May 21
Last Quarter
May 28
New

Hourly Weather History & Observations

Time (EDT) Temp. Dew Point Humidity Pressure Visibility Wind Dir Wind Speed Gust Speed Precip Events Conditions
12:54 AM 60.1 °F 39.9 °F 47% 29.90 in 10.0 mi West 8.1 mph - N/A   Clear
1:54 AM 57.9 °F 39.9 °F 51% 29.90 in 10.0 mi West 9.2 mph - N/A   Clear
2:54 AM 57.9 °F 39.0 °F 49% 29.90 in 10.0 mi WNW 9.2 mph - N/A   Clear
3:54 AM 57.9 °F 37.9 °F 47% 29.90 in 10.0 mi WNW 8.1 mph - N/A   Clear
4:54 AM 55.0 °F 37.9 °F 53% 29.91 in 10.0 mi West 8.1 mph - N/A   Clear
6:54 AM 53.1 °F 37.9 °F 57% 29.94 in 10.0 mi West 9.2 mph - N/A   Clear
7:54 AM 57.9 °F 37.0 °F 46% 29.95 in 10.0 mi West 10.4 mph - N/A   Clear
8:54 AM 62.1 °F 37.9 °F 41% 29.96 in 10.0 mi West 5.8 mph - N/A   Clear
9:54 AM 64.9 °F 37.0 °F 36% 29.97 in 10.0 mi NW 6.9 mph - N/A   Clear
10:54 AM 66.9 °F 35.1 °F 31% 29.98 in 10.0 mi NNE 4.6 mph - N/A   Clear
11:54 AM 70.0 °F 36.0 °F 29% 29.97 in 10.0 mi East 6.9 mph - N/A   Clear
12:54 PM 70.0 °F 37.0 °F 30% 29.96 in 10.0 mi Variable 3.5 mph - N/A   Clear
1:54 PM 73.9 °F 37.9 °F 27% 29.95 in 10.0 mi Variable 5.8 mph - N/A   Clear
2:54 PM 75.9 °F 39.0 °F 26% 29.94 in 10.0 mi Variable 6.9 mph - N/A   Clear
4:54 PM 80.1 °F 37.9 °F 22% 29.89 in 10.0 mi SW 9.2 mph - N/A   Clear
5:54 PM 80.1 °F 37.9 °F 22% 29.89 in 10.0 mi West 10.4 mph - N/A   Clear
6:54 PM 79.0 °F 37.9 °F 23% 29.89 in 10.0 mi West 12.7 mph - N/A   Clear
7:54 PM 75.0 °F 37.9 °F 26% 29.91 in 10.0 mi West 11.5 mph - N/A   Clear
8:54 PM 73.0 °F 39.0 °F 29% 29.93 in 10.0 mi WNW 15.0 mph - N/A   Clear
9:54 PM 70.0 °F 39.0 °F 32% 29.96 in 10.0 mi WNW 10.4 mph - N/A   Clear
10:54 PM 69.1 °F 39.0 °F 33% 29.98 in 10.0 mi WNW 9.2 mph - N/A   Clear
11:54 PM 68.0 °F 39.0 °F 35% 29.99 in 10.0 mi West 10.4 mph - N/A   Clear